Brownwood, TX

12:46 AM CST on December 16, 2017 (GMT -0600)
Brownwood Regional

Weather History for KBWD - June, 2013

Change the Weather History Date:

Monday, June 24, 2013

  Actual Average (KABI) Record (KABI)
Temperature  
Mean Temperature 84 °F -  
Max Temperature 95 °F 88 °F 105 °F (1953)
Min Temperature 73 °F 68 °F 60 °F (1957)
Cooling Degree Days 19    
Growing Degree Days 34 (Base 50)    
Moisture  
Dew Point 63 °F    
Average Humidity 50    
Maximum Humidity 78    
Minimum Humidity 30    
Precipitation  
Precipitation 0.00 in - - ()
Sea Level Pressure  
Sea Level Pressure 29.97 in    
Wind  
Wind Speed 13 mph (SSE)    
Max Wind Speed 21 mph    
Max Gust Speed 34 mph    
Visibility 10 miles    
Events      
Averages and records for this station are not official NWS values.
T = Trace of Precipitation, MM = Missing Value Source: NWS Daily Summary

Daily Weather History Graph

Daily Weather History Graph

Search for Another Location

Airport or City:

Trip Planner

Search our weather history database for the weather conditions in past years. The results will help you decide how hot, cold, wet, or windy it might be!

Date:

Astronomy

Jun. 24, 2013 Rise Set
Actual Time 6:31 AM CDT 8:45 PM CDT
Civil Twilight 6:03 AM CDT 9:13 PM CDT
Nautical Twilight 5:28 AM CDT 9:47 PM CDT
Astronomical Twilight 4:51 AM CDT 10:24 PM CDT
Moon 9:56 PM CDT (6/24) 7:54 AM CDT (6/24)
Length of Visible Light 15h 09m
Length of Day
14h 13m
Full, 98% of the Moon is Illuminated
Jun 24
Full
Jun 29
Last Quarter
Jul 8
New
Jul 15
First Quarter
Jul 22
Full

Hourly Weather History & Observations

Time (CDT) Temp. Heat Index Dew Point Humidity Pressure Visibility Wind Dir Wind Speed Gust Speed Precip Events Conditions
12:15 AM 82.4 °F 82.5 °F 59.0 °F 45% 29.96 in 10.0 mi SSE 10.4 mph - N/A   Clear
12:35 AM 80.6 °F 81.1 °F 59.0 °F 48% 29.96 in 10.0 mi SSE 11.5 mph - N/A   Clear
12:55 AM 80.6 °F 81.1 °F 59.0 °F 48% 29.96 in 10.0 mi SE 13.8 mph - N/A   Clear
1:15 AM 80.6 °F 81.1 °F 59.0 °F 48% 29.97 in 10.0 mi SSE 11.5 mph - N/A   Clear
1:35 AM 78.8 °F - 59.0 °F 51% 29.97 in 10.0 mi SSE 11.5 mph - N/A   Clear
1:55 AM 77.0 °F - 59.0 °F 54% 29.98 in 10.0 mi SSE 10.4 mph - N/A   Clear
2:15 AM 77.0 °F - 59.0 °F 54% 29.97 in 10.0 mi SSE 10.4 mph 17.3 mph N/A   Clear
2:35 AM 77.0 °F - 62.6 °F 61% 29.98 in 10.0 mi SSE 11.5 mph - N/A   Partly Cloudy
2:55 AM 77.0 °F - 62.6 °F 61% 29.98 in 10.0 mi South 11.5 mph 17.3 mph N/A   Partly Cloudy
3:15 AM 77.0 °F - 62.6 °F 61% 29.97 in 10.0 mi SSE 11.5 mph 18.4 mph N/A   Clear
3:35 AM 77.0 °F - 62.6 °F 61% 29.98 in 10.0 mi SSE 12.7 mph 17.3 mph N/A   Clear
3:55 AM 75.2 °F - 62.6 °F 65% 29.98 in 10.0 mi SSE 12.7 mph 23.0 mph N/A   Partly Cloudy
4:15 AM 75.2 °F - 64.4 °F 69% 29.98 in 10.0 mi SSE 11.5 mph - N/A   Partly Cloudy
4:35 AM 75.2 °F - 64.4 °F 69% 29.98 in 10.0 mi SSE 9.2 mph 17.3 mph N/A   Clear
4:55 AM 75.2 °F - 64.4 °F 69% 29.99 in 10.0 mi SSE 12.7 mph - N/A   Clear
5:15 AM 75.2 °F - 64.4 °F 69% 29.98 in 10.0 mi SSE 12.7 mph 18.4 mph N/A   Clear
5:35 AM 73.4 °F - 64.4 °F 73% 29.99 in 10.0 mi SSE 10.4 mph - N/A   Clear
5:55 AM 73.4 °F - 64.4 °F 73% 29.99 in 10.0 mi SSE 11.5 mph 17.3 mph N/A   Clear
6:15 AM 73.4 °F - 64.4 °F 73% 30.00 in 10.0 mi SSE 8.1 mph - N/A   Clear
6:35 AM 73.4 °F - 66.2 °F 78% 30.01 in 8.0 mi SSE 9.2 mph - N/A   Clear
6:55 AM 73.4 °F - 66.2 °F 78% 30.01 in 8.0 mi SSE 11.5 mph 17.3 mph N/A   Clear
7:15 AM 73.4 °F - 66.2 °F 78% 30.02 in 8.0 mi SSE 10.4 mph - N/A   Clear
7:35 AM 73.4 °F - 66.2 °F 78% 30.02 in 7.0 mi SSE 11.5 mph 16.1 mph N/A   Clear
7:55 AM 75.2 °F - 66.2 °F 73% 30.02 in 8.0 mi SSE 11.5 mph 18.4 mph N/A   Clear
8:15 AM 75.2 °F - 66.2 °F 73% 30.03 in 8.0 mi SSE 16.1 mph 19.6 mph N/A   Partly Cloudy
8:35 AM 77.0 °F - 66.2 °F 69% 30.03 in 9.0 mi South 15.0 mph 23.0 mph N/A   Partly Cloudy
8:55 AM 78.8 °F - 66.2 °F 65% 30.03 in 9.0 mi South 18.4 mph 26.5 mph N/A   Partly Cloudy
9:15 AM 78.8 °F - 66.2 °F 65% 30.04 in 9.0 mi South 17.3 mph 25.3 mph N/A   Mostly Cloudy
9:35 AM 80.6 °F 82.7 °F 66.2 °F 61% 30.04 in 9.0 mi South 15.0 mph 24.2 mph N/A   Mostly Cloudy
9:55 AM 80.6 °F 82.7 °F 66.2 °F 61% 30.04 in 10.0 mi South 18.4 mph 24.2 mph N/A   Overcast
10:15 AM 82.4 °F 84.6 °F 66.2 °F 58% 30.04 in 10.0 mi South 17.3 mph 26.5 mph N/A   Overcast
10:35 AM 82.4 °F 84.6 °F 66.2 °F 58% 30.04 in 10.0 mi South 15.0 mph 24.2 mph N/A   Overcast
10:55 AM 82.4 °F 84.6 °F 66.2 °F 58% 30.04 in 10.0 mi South 20.7 mph 26.5 mph N/A   Overcast
11:15 AM 84.2 °F 86.6 °F 66.2 °F 55% 30.04 in 10.0 mi South 17.3 mph 26.5 mph N/A   Mostly Cloudy
11:35 AM 86.0 °F 87.3 °F 64.4 °F 48% 30.04 in 9.0 mi South 20.7 mph 34.5 mph N/A   Mostly Cloudy
11:55 AM 86.0 °F 88.2 °F 66.2 °F 51% 30.04 in 10.0 mi South 19.6 mph 26.5 mph N/A   Mostly Cloudy
12:15 PM 86.0 °F 88.2 °F 66.2 °F 51% 30.03 in 10.0 mi SSW 17.3 mph 24.2 mph N/A   Mostly Cloudy
12:35 PM 86.0 °F 88.2 °F 66.2 °F 51% 30.03 in 10.0 mi SSW 12.7 mph 19.6 mph N/A   Mostly Cloudy
12:55 PM 87.8 °F 89.4 °F 64.4 °F 46% 30.02 in 10.0 mi South 15.0 mph 23.0 mph N/A   Mostly Cloudy
1:15 PM 91.4 °F 93.2 °F 64.4 °F 41% 30.01 in 10.0 mi South 16.1 mph 23.0 mph N/A   Partly Cloudy
1:35 PM 89.6 °F 91.1 °F 64.4 °F 43% 30.00 in 10.0 mi South 16.1 mph 23.0 mph N/A   Partly Cloudy
1:55 PM 93.2 °F 94.1 °F 62.6 °F 36% 29.99 in 10.0 mi SSW 18.4 mph 21.9 mph N/A   Partly Cloudy
2:15 PM 91.4 °F 92.1 °F 62.6 °F 38% 29.98 in 10.0 mi South 19.6 mph 25.3 mph N/A   Scattered Clouds
2:35 PM 93.2 °F 94.1 °F 62.6 °F 36% 29.97 in 10.0 mi South 12.7 mph 24.2 mph N/A   Mostly Cloudy
2:55 PM 93.2 °F 93.3 °F 60.8 °F 34% 29.97 in 9.0 mi South 15.0 mph 25.3 mph N/A   Scattered Clouds
3:15 PM 95.0 °F 95.2 °F 60.8 °F 32% 29.96 in 10.0 mi South 18.4 mph 26.5 mph N/A   Partly Cloudy
3:35 PM 95.0 °F 95.2 °F 60.8 °F 32% 29.95 in 10.0 mi South 20.7 mph 24.2 mph N/A   Scattered Clouds
3:55 PM 95.0 °F 95.2 °F 60.8 °F 32% 29.94 in 10.0 mi South 17.3 mph 26.5 mph N/A   Scattered Clouds
4:15 PM 93.2 °F 92.6 °F 59.0 °F 32% 29.93 in 10.0 mi South 11.5 mph 25.3 mph N/A   Partly Cloudy
4:35 PM 93.2 °F 93.3 °F 60.8 °F 34% 29.93 in 10.0 mi SSE 15.0 mph 20.7 mph N/A   Scattered Clouds
4:55 PM 95.0 °F 95.2 °F 60.8 °F 32% 29.92 in 10.0 mi SSE 18.4 mph 26.5 mph N/A   Scattered Clouds
5:15 PM 95.0 °F 95.2 °F 60.8 °F 32% 29.91 in 10.0 mi South 19.6 mph 25.3 mph N/A   Partly Cloudy
5:35 PM 95.0 °F 95.2 °F 60.8 °F 32% 29.90 in 10.0 mi South 16.1 mph 25.3 mph N/A   Partly Cloudy
5:55 PM 95.0 °F 95.2 °F 60.8 °F 32% 29.90 in 10.0 mi South 16.1 mph 31.1 mph N/A   Partly Cloudy
6:15 PM 95.0 °F 94.4 °F 59.0 °F 30% 29.90 in 10.0 mi SSE 18.4 mph 27.6 mph N/A   Scattered Clouds
6:35 PM 95.0 °F 94.4 °F 59.0 °F 30% 29.89 in 10.0 mi SSE 17.3 mph 24.2 mph N/A   Clear
6:55 PM 95.0 °F 94.4 °F 59.0 °F 30% 29.90 in 10.0 mi South 18.4 mph 25.3 mph N/A   Clear
7:15 PM 93.2 °F 92.6 °F 59.0 °F 32% 29.89 in 10.0 mi South 16.1 mph 25.3 mph N/A   Clear
7:35 PM 93.2 °F 92.6 °F 59.0 °F 32% 29.89 in 10.0 mi South 16.1 mph 24.2 mph N/A   Clear
7:55 PM 91.4 °F 90.7 °F 59.0 °F 34% 29.89 in 10.0 mi SSE 15.0 mph 23.0 mph N/A   Clear
8:15 PM 91.4 °F 90.7 °F 59.0 °F 34% 29.89 in 10.0 mi SSE 12.7 mph 21.9 mph N/A   Clear
8:35 PM 89.6 °F 88.9 °F 59.0 °F 36% 29.89 in 10.0 mi SSE 13.8 mph 20.7 mph N/A   Clear
8:55 PM 89.6 °F 88.9 °F 59.0 °F 36% 29.89 in 10.0 mi SSE 15.0 mph 20.7 mph N/A   Clear
9:15 PM 89.6 °F 88.9 °F 59.0 °F 36% 29.89 in 10.0 mi SSE 11.5 mph - N/A   Clear
9:35 PM 87.8 °F 87.1 °F 59.0 °F 38% 29.90 in 10.0 mi SSE 10.4 mph 16.1 mph N/A   Clear
9:55 PM 87.8 °F 87.6 °F 60.8 °F 40% 29.91 in 10.0 mi SSE 9.2 mph - N/A   Clear
10:15 PM 86.0 °F 86.6 °F 62.6 °F 45% 29.92 in 10.0 mi SSE 11.5 mph 19.6 mph N/A   Partly Cloudy
10:35 PM 86.0 °F 86.6 °F 62.6 °F 45% 29.93 in 10.0 mi SSE 11.5 mph 17.3 mph N/A   Partly Cloudy
10:55 PM 86.0 °F 86.6 °F 62.6 °F 45% 29.94 in 10.0 mi SSE 13.8 mph 23.0 mph N/A   Scattered Clouds
11:15 PM 86.0 °F 86.6 °F 62.6 °F 45% 29.95 in 10.0 mi SSE 10.4 mph 18.4 mph N/A   Mostly Cloudy
11:35 PM 84.2 °F 85.0 °F 62.6 °F 48% 29.97 in 10.0 mi SSE 11.5 mph 21.9 mph N/A   Scattered Clouds
11:55 PM 84.2 °F 85.0 °F 62.6 °F 48% 29.97 in 10.0 mi SSE 15.0 mph 19.6 mph N/A   Mostly Cloudy